QPF
0.01 0.01 0.01 0.00 0.01 0.01 0.01 0.00 0.01 0.01 0.01 0.01 0.00 0.00 0.00 0.00 0.00 0.00 0.00 0.00 0.00 0.00 0.00 0.00 0.00 0.00 0.00 0.00 0.00 0.00 0.00 0.00 0.00 0.00 0.00 0.00 0.00 0.00 0.00 0.00 0.00 0.00 0.00 0.00
0.01 0.01 0.02 0.01 0.01 0.01 0.01 0.01 0.01 0.01 0.01 0.00 0.00 0.00 0.00 0.00 0.00 0.00 0.00 0.00 0.00 0.00 0.00 0.00 0.00 0.00 0.00 0.00 0.00 0.00 0.00 0.00 0.00 0.00 0.00 0.00 0.00 0.00 0.00 0.00 0.00 0.00 0.00 0.00
0.01 0.01 0.02 0.01 0.01 0.01 0.01 0.01 0.01 0.01 0.01 0.01 0.00 0.00 0.00 0.00 0.00 0.00 0.00 0.00 0.00 0.00 0.00 0.00 0.00 0.00 0.00 0.00 0.00 0.00 0.00 0.00 0.00 0.00 0.00 0.00 0.00 0.00 0.00 0.00 0.00 0.00 0.00 0.00
0.02 0.02 0.02 0.01 0.01 0.01 0.01 0.01 0.00 0.00 0.01 0.00 0.00 0.00 0.00 0.00 0.00 0.00 0.00 0.00 0.00 0.00 0.00 0.00 0.00 0.00 0.00 0.00 0.00 0.00 0.00 0.00 0.00 0.00 0.00 0.00 0.00 0.00 0.00 0.00 0.00 0.00 0.00 0.00
0.03 0.03 0.02 0.02 0.01 0.01 0.01 0.01 0.01 0.00 0.00 0.00 0.00 0.00 0.00 0.00 0.00 0.00 0.00 0.00 0.00 0.00 0.00 0.00 0.00 0.00 0.00 0.00 0.00 0.00 0.00 0.00 0.00 0.00 0.00 0.00 0.00 0.00 0.00 0.00 0.00 0.00 0.00 0.00
0.02 0.04 0.04 0.03 0.03 0.03 0.02 0.01 0.01 0.00 0.00 0.00 0.00 0.00 0.00 0.00 0.00 0.00 0.00 0.00 0.00 0.00 0.00 0.00 0.00 0.00 0.00 0.00 0.00 0.00 0.00 0.00 0.00 0.00 0.00 0.00 0.00 0.00 0.00 0.00 0.00 0.00 0.00 0.00
0.02 0.03 0.04 0.04 0.03 0.02 0.02 0.01 0.01 0.01 0.01 0.01 0.01 0.01 0.00 0.00 0.00 0.00 0.00 0.00 0.00 0.00 0.00 0.00 0.00 0.00 0.00 0.00 0.00 0.00 0.00 0.00 0.00 0.00 0.00 0.00 0.00 0.00 0.00 0.00 0.00 0.00 0.00 0.00
0.04 0.05 0.05 0.05 0.04 0.03 0.03 0.02 0.02 0.01 0.01 0.01 0.01 0.01 0.01 0.01 0.01 0.00 0.00 0.00 0.00 0.00 0.00 0.00 0.00 0.00 0.00 0.00 0.00 0.00 0.00 0.00 0.00 0.00 0.00 0.00 0.00 0.00 0.00 0.00 0.00 0.00 0.00 0.00
0.08 0.08 0.09 0.10 0.08 0.09 0.08 0.04 0.03 0.02 0.01 0.01 0.01 0.01 0.01 0.00 0.00 0.00 0.00 0.00 0.00 0.00 0.00 0.00 0.00 0.00 0.00 0.00 0.00 0.00 0.00 0.00 0.00 0.00 0.00 0.00 0.00 0.00 0.00 0.00 0.01 0.00 0.00 0.00
0.14 0.13 0.11 0.09 0.08 0.07 0.07 0.04 0.02 0.02 0.01 0.01 0.01 0.01 0.00 0.00 0.00 0.00 0.00 0.00 0.00 0.00 0.00 0.00 0.00 0.00 0.00 0.00 0.00 0.00 0.00 0.00 0.00 0.00 0.00 0.00 0.00 0.00 0.00 0.00 0.01 0.01 0.00 0.00
0.12 0.15 0.11 0.07 0.04 0.04 0.04 0.05 0.05 0.04 0.03 0.02 0.01 0.00 0.00 0.00 0.00 0.00 0.00 0.00 0.00 0.00 0.00 0.00 0.00 0.00 0.00 0.00 0.00 0.00 0.00 0.00 0.00 0.00 0.00 0.00 0.00 0.00 0.00 0.00 0.00 0.01 0.00 0.00
0.13 0.09 0.09 0.06 0.04 0.05 0.04 0.02 0.03 0.03 0.02 0.02 0.01 0.00 0.00 0.00 0.00 0.00 0.00 0.00 0.00 0.00 0.00 0.00 0.00 0.00 0.00 0.00 0.00 0.00 0.00 0.00 0.00 0.00 0.00 0.00 0.00 0.00 0.00 0.00 0.00 0.00 0.00 0.01
0.11 0.08 0.07 0.06 0.05 0.04 0.04 0.02 0.03 0.04 0.03 0.03 0.02 0.01 0.00 0.00 0.00 0.00 0.00 0.00 0.00 0.00 0.00 0.00 0.00 0.00 0.00 0.00 0.00 0.00 0.00 0.00 0.00 0.00 0.00 0.00 0.00 0.00 0.00 0.00 0.00 0.00 0.00 0.01
0.08 0.07 0.05 0.04 0.03 0.03 0.02 0.02 0.01 0.01 0.01 0.01 0.01 0.01 0.01 0.01 0.01 0.00 0.00 0.00 0.00 0.00 0.00 0.00 0.00 0.00 0.00 0.00 0.00 0.00 0.00 0.00 0.00 0.00 0.00 0.00 0.00 0.00 0.00 0.00 0.00 0.00 0.00 0.01
0.05 0.05 0.04 0.02 0.02 0.02 0.02 0.01 0.01 0.01 0.01 0.01 0.01 0.01 0.02 0.03 0.02 0.01 0.01 0.01 0.01 0.01 0.01 0.01 0.01 0.01 0.01 0.00 0.00 0.00 0.00 0.01 0.01 0.00 0.00 0.00 0.00 0.00 0.00 0.00 0.00 0.01 0.01 0.01
0.06 0.05 0.03 0.02 0.02 0.02 0.01 0.01 0.01 0.02 0.02 0.01 0.01 0.01 0.01 0.01 0.01 0.01 0.01 0.01 0.01 0.01 0.01 0.01 0.01 0.00 0.00 0.01 0.01 0.01 0.01 0.01 0.01 0.01 0.00 0.01 0.01 0.00 0.00 0.01 0.01 0.01 0.01 0.01
0.06 0.04 0.03 0.02 0.03 0.03 0.02 0.02 0.03 0.02 0.02 0.02 0.01 0.01 0.01 0.01 0.01 0.01 0.01 0.01 0.00 0.00 0.00 0.00 0.00 0.00 0.00 0.01 0.01 0.01 0.01 0.01 0.01 0.01 0.01 0.01 0.01 0.01 0.01 0.01 0.01 0.02 0.02 0.02
0.07 0.05 0.04 0.03 0.02 0.02 0.02 0.03 0.03 0.03 0.02 0.02 0.02 0.02 0.02 0.01 0.01 0.01 0.01 0.01 0.01 0.01 0.01 0.01 0.01 0.01 0.01 0.01 0.01 0.01 0.01 0.01 0.01 0.01 0.01 0.01 0.01 0.01 0.01 0.01 0.01 0.02 0.01 0.01
0.08 0.05 0.03 0.03 0.03 0.03 0.02 0.02 0.03 0.03 0.02 0.02 0.02 0.01 0.01 0.01 0.01 0.01 0.00 0.00 0.01 0.01 0.01 0.01 0.01 0.01 0.01 0.01 0.01 0.01 0.01 0.01 0.01 0.01 0.01 0.01 0.01 0.01 0.01 0.01 0.01 0.02 0.02 0.01
0.07 0.05 0.04 0.03 0.03 0.03 0.03 0.02 0.03 0.02 0.02 0.02 0.01 0.01 0.01 0.01 0.00 0.00 0.00 0.00 0.01 0.00 0.00 0.00 0.01 0.01 0.01 0.01 0.01 0.01 0.01 0.01 0.01 0.01 0.01 0.01 0.01 0.01 0.01 0.02 0.02 0.02 0.02 0.02
0.09 0.10 0.07 0.05 0.03 0.02 0.01 0.01 0.02 0.01 0.01 0.01 0.01 0.00 0.00 0.00 0.00 0.00 0.00 0.00 0.00 0.00 0.00 0.00 0.01 0.01 0.01 0.01 0.01 0.01 0.01 0.01 0.01 0.02 0.02 0.01 0.01 0.01 0.01 0.02 0.03 0.02 0.02 0.02
0.04 0.04 0.05 0.04 0.02 0.02 0.01 0.01 0.02 0.01 0.01 0.01 0.01 0.00 0.00 0.00 0.00 0.00 0.00 0.00 0.00 0.01 0.01 0.01 0.01 0.01 0.01 0.01 0.01 0.01 0.01 0.01 0.01 0.01 0.01 0.01 0.01 0.01 0.01 0.02 0.02 0.02 0.02 0.02
0.02 0.03 0.03 0.03 0.02 0.01 0.01 0.02 0.01 0.01 0.01 0.01 0.01 0.00 0.00 0.00 0.01 0.01 0.01 0.01 0.01 0.02 0.01 0.01 0.01 0.01 0.01 0.01 0.00 0.00 0.00 0.00 0.00 0.01 0.01 0.01 0.01 0.02 0.02 0.02 0.03 0.03 0.03 0.03
0.02 0.02 0.03 0.03 0.02 0.01 0.01 0.01 0.01 0.01 0.01 0.00 0.00 0.01 0.01 0.01 0.01 0.01 0.01 0.01 0.00 0.00 0.00 0.00 0.00 0.00 0.00 0.00 0.00 0.00 0.01 0.01 0.00 0.01 0.01 0.01 0.02 0.03 0.03 0.03 0.03 0.04 0.04 0.04
0.01 0.01 0.00 0.00 0.00 0.01 0.00 0.01 0.01 0.00 0.00 0.00 0.00 0.00 0.00 0.00 0.00 0.00 0.00 0.00 0.00 0.00 0.00 0.00 0.00 0.00 0.00 0.00 0.00 0.00 0.01 0.01 0.01 0.01 0.01 0.02 0.02 0.03 0.03 0.03 0.04 0.05 0.06 0.06
0.01 0.01 0.00 0.00 0.00 0.00 0.00 0.00 0.00 0.00 0.00 0.00 0.00 0.00 0.00 0.00 0.00 0.00 0.00 0.00 0.00 0.00 0.00 0.00 0.00 0.00 0.00 0.00 0.00 0.00 0.01 0.01 0.01 0.02 0.02 0.02 0.02 0.03 0.03 0.04 0.05 0.05 0.05 0.06
0.00 0.00 0.00 0.00 0.00 0.00 0.00 0.00 0.00 0.00 0.00 0.00 0.00 0.00 0.00 0.00 0.00 0.00 0.00 0.00 0.00 0.00 0.00 0.00 0.00 0.00 0.00 0.00 0.01 0.01 0.01 0.01 0.02 0.02 0.02 0.02 0.03 0.03 0.04 0.04 0.05 0.05 0.05 0.05
MSLP
1011.77 1012.21 1012.59 1012.87 1013.07 1013.19 1013.24 1013.23 1013.18 1013.11 1013.05 1013.01 1013.02 1013.09 1013.23 1013.44 1013.72 1014.04 1014.39 1014.75 1015.10 1015.41 1015.69 1015.93 1016.14 1016.32 1016.49 1016.65 1016.81 1016.95 1017.08 1017.18 1017.25 1017.27 1017.25 1017.18 1017.08 1016.95 1016.80 1016.65 1016.50 1016.36 1016.24 1016.13
1011.82 1012.22 1012.45 1012.52 1012.46 1012.30 1012.10 1011.90 1011.74 1011.66 1011.68 1011.79 1012.00 1012.30 1012.64 1013.02 1013.40 1013.78 1014.13 1014.44 1014.72 1014.98 1015.22 1015.45 1015.68 1015.91 1016.14 1016.38 1016.59 1016.79 1016.94 1017.05 1017.10 1017.10 1017.04 1016.94 1016.82 1016.68 1016.53 1016.38 1016.23 1016.10 1015.97 1015.84
1012.11 1012.43 1012.52 1012.39 1012.08 1011.68 1011.24 1010.87 1010.60 1010.49 1010.55 1010.77 1011.13 1011.58 1012.08 1012.58 1013.04 1013.45 1013.79 1014.06 1014.29 1014.50 1014.70 1014.92 1015.17 1015.45 1015.74 1016.04 1016.32 1016.56 1016.74 1016.85 1016.90 1016.88 1016.80 1016.69 1016.55 1016.40 1016.25 1016.11 1015.97 1015.83 1015.70 1015.55
1012.61 1012.83 1012.77 1012.45 1011.93 1011.32 1010.70 1010.17 1009.81 1009.66 1009.74 1010.02 1010.48 1011.04 1011.64 1012.21 1012.72 1013.14 1013.46 1013.70 1013.88 1014.05 1014.22 1014.44 1014.70 1015.00 1015.34 1015.69 1016.01 1016.28 1016.48 1016.61 1016.65 1016.61 1016.53 1016.40 1016.26 1016.12 1015.98 1015.84 1015.71 1015.58 1015.43 1015.27
1013.20 1013.29 1013.07 1012.59 1011.92 1011.15 1010.39 1009.76 1009.33 1009.15 1009.24 1009.56 1010.06 1010.68 1011.33 1011.95 1012.49 1012.91 1013.21 1013.42 1013.57 1013.71 1013.86 1014.06 1014.32 1014.64 1015.00 1015.37 1015.71 1016.00 1016.21 1016.33 1016.36 1016.32 1016.23 1016.10 1015.96 1015.83 1015.70 1015.58 1015.46 1015.34 1015.19 1015.02
1013.66 1013.61 1013.27 1012.66 1011.88 1011.02 1010.20 1009.52 1009.06 1008.88 1008.97 1009.30 1009.84 1010.49 1011.16 1011.79 1012.34 1012.75 1013.05 1013.24 1013.37 1013.49 1013.62 1013.81 1014.07 1014.38 1014.74 1015.11 1015.44 1015.73 1015.93 1016.04 1016.07 1016.02 1015.92 1015.79 1015.66 1015.54 1015.42 1015.32 1015.22 1015.10 1014.96 1014.79
1013.80 1013.62 1013.17 1012.49 1011.66 1010.78 1009.96 1009.30 1008.86 1008.69 1008.80 1009.16 1009.71 1010.36 1011.04 1011.68 1012.22 1012.64 1012.93 1013.12 1013.24 1013.35 1013.48 1013.66 1013.90 1014.20 1014.54 1014.88 1015.20 1015.47 1015.65 1015.75 1015.76 1015.71 1015.61 1015.49 1015.36 1015.24 1015.14 1015.05 1014.96 1014.85 1014.72 1014.55
1013.47 1013.17 1012.66 1011.96 1011.15 1010.32 1009.56 1008.96 1008.59 1008.47 1008.62 1008.99 1009.55 1010.20 1010.88 1011.51 1012.05 1012.47 1012.78 1012.98 1013.12 1013.23 1013.36 1013.53 1013.76 1014.04 1014.35 1014.67 1014.96 1015.20 1015.36 1015.45 1015.46 1015.40 1015.30 1015.18 1015.06 1014.94 1014.84 1014.76 1014.67 1014.57 1014.45 1014.30
1012.62 1012.25 1011.71 1011.05 1010.31 1009.58 1008.93 1008.44 1008.16 1008.12 1008.31 1008.71 1009.27 1009.92 1010.58 1011.21 1011.76 1012.19 1012.52 1012.74 1012.91 1013.04 1013.19 1013.36 1013.58 1013.83 1014.12 1014.41 1014.68 1014.89 1015.04 1015.12 1015.13 1015.08 1014.98 1014.86 1014.74 1014.63 1014.52 1014.43 1014.34 1014.24 1014.13 1014.00
1011.33 1010.92 1010.41 1009.81 1009.19 1008.59 1008.09 1007.73 1007.56 1007.60 1007.84 1008.26 1008.82 1009.46 1010.12 1010.74 1011.29 1011.74 1012.10 1012.36 1012.56 1012.73 1012.89 1013.07 1013.29 1013.53 1013.79 1014.06 1014.31 1014.51 1014.66 1014.74 1014.76 1014.72 1014.64 1014.52 1014.40 1014.28 1014.16 1014.05 1013.95 1013.85 1013.74 1013.63
1009.78 1009.38 1008.91 1008.42 1007.92 1007.47 1007.12 1006.90 1006.83 1006.95 1007.23 1007.67 1008.22 1008.85 1009.49 1010.11 1010.66 1011.14 1011.53 1011.84 1012.08 1012.28 1012.47 1012.66 1012.87 1013.10 1013.35 1013.59 1013.83 1014.03 1014.19 1014.29 1014.32 1014.31 1014.24 1014.14 1014.01 1013.88 1013.74 1013.61 1013.49 1013.38 1013.27 1013.18
1008.22 1007.84 1007.45 1007.06 1006.69 1006.39 1006.17 1006.06 1006.09 1006.26 1006.58 1007.01 1007.55 1008.16 1008.78 1009.39 1009.96 1010.46 1010.88 1011.22 1011.50 1011.73 1011.94 1012.14 1012.34 1012.55 1012.78 1013.01 1013.24 1013.44 1013.61 1013.73 1013.79 1013.80 1013.76 1013.67 1013.55 1013.41 1013.25 1013.10 1012.96 1012.83 1012.72 1012.63
1006.88 1006.55 1006.23 1005.93 1005.68 1005.50 1005.38 1005.37 1005.46 1005.67 1005.99 1006.42 1006.93 1007.51 1008.11 1008.72 1009.29 1009.80 1010.25 1010.63 1010.93 1011.18 1011.39 1011.58 1011.76 1011.95 1012.15 1012.35 1012.56 1012.76 1012.93 1013.07 1013.16 1013.20 1013.19 1013.12 1013.01 1012.86 1012.69 1012.52 1012.35 1012.21 1012.09 1012.00
1005.93 1005.64 1005.39 1005.18 1005.02 1004.92 1004.88 1004.92 1005.05 1005.27 1005.58 1005.99 1006.48 1007.02 1007.61 1008.20 1008.77 1009.30 1009.76 1010.16 1010.47 1010.72 1010.92 1011.08 1011.21 1011.35 1011.50 1011.66 1011.83 1012.01 1012.17 1012.32 1012.44 1012.50 1012.51 1012.47 1012.37 1012.22 1012.05 1011.86 1011.68 1011.52 1011.39 1011.30
1005.43 1005.19 1005.00 1004.85 1004.76 1004.72 1004.73 1004.79 1004.93 1005.14 1005.44 1005.81 1006.27 1006.79 1007.35 1007.93 1008.50 1009.03 1009.50 1009.89 1010.20 1010.42 1010.58 1010.68 1010.76 1010.82 1010.89 1010.98 1011.10 1011.23 1011.38 1011.52 1011.64 1011.72 1011.75 1011.72 1011.64 1011.50 1011.33 1011.14 1010.95 1010.77 1010.63 1010.53
1005.36 1005.17 1005.03 1004.93 1004.88 1004.88 1004.91 1004.99 1005.12 1005.31 1005.58 1005.93 1006.35 1006.84 1007.38 1007.95 1008.51 1009.03 1009.49 1009.86 1010.14 1010.32 1010.42 1010.44 1010.43 1010.40 1010.38 1010.38 1010.41 1010.48 1010.58 1010.69 1010.80 1010.88 1010.92 1010.91 1010.84 1010.72 1010.55 1010.36 1010.16 1009.98 1009.82 1009.71
1005.62 1005.48 1005.38 1005.33 1005.32 1005.33 1005.37 1005.45 1005.57 1005.74 1005.98 1006.30 1006.70 1007.16 1007.68 1008.22 1008.76 1009.26 1009.69 1010.03 1010.26 1010.39 1010.41 1010.35 1010.24 1010.10 1009.97 1009.87 1009.81 1009.80 1009.83 1009.90 1009.97 1010.04 1010.08 1010.07 1010.01 1009.89 1009.74 1009.55 1009.35 1009.16 1009.00 1008.87
1006.09 1006.00 1005.95 1005.94 1005.95 1005.98 1006.03 1006.10 1006.21 1006.36 1006.58 1006.87 1007.23 1007.67 1008.15 1008.67 1009.18 1009.64 1010.04 1010.33 1010.51 1010.56 1010.50 1010.36 1010.15 1009.91 1009.67 1009.47 1009.31 1009.22 1009.18 1009.18 1009.21 1009.25 1009.27 1009.25 1009.19 1009.07 1008.92 1008.74 1008.54 1008.35 1008.18 1008.04
1006.63 1006.60 1006.60 1006.63 1006.67 1006.72 1006.78 1006.85 1006.95 1007.08 1007.27 1007.53 1007.87 1008.27 1008.72 1009.19 1009.65 1010.07 1010.41 1010.65 1010.77 1010.76 1010.63 1010.41 1010.12 1009.79 1009.47 1009.18 1008.94 1008.77 1008.66 1008.60 1008.58 1008.57 1008.55 1008.51 1008.43 1008.31 1008.15 1007.96 1007.76 1007.57 1007.40 1007.25
1007.15 1007.18 1007.24 1007.31 1007.38 1007.46 1007.52 1007.60 1007.69 1007.81 1007.98 1008.21 1008.50 1008.86 1009.25 1009.67 1010.07 1010.43 1010.72 1010.90 1010.95 1010.89 1010.71 1010.43 1010.09 1009.71 1009.34 1008.99 1008.70 1008.46 1008.29 1008.18 1008.10 1008.04 1007.98 1007.90 1007.79 1007.64 1007.47 1007.27 1007.06 1006.86 1006.69 1006.54
1007.61 1007.69 1007.80 1007.91 1008.02 1008.11 1008.19 1008.27 1008.36 1008.47 1008.61 1008.81 1009.06 1009.36 1009.69 1010.04 1010.38 1010.67 1010.89 1011.01 1011.02 1010.91 1010.70 1010.40 1010.04 1009.64 1009.25 1008.88 1008.56 1008.29 1008.09 1007.93 1007.80 1007.69 1007.58 1007.45 1007.30 1007.11 1006.90 1006.68 1006.46 1006.25 1006.08 1005.94
1007.97 1008.10 1008.25 1008.39 1008.52 1008.64 1008.74 1008.83 1008.91 1009.01 1009.13 1009.30 1009.50 1009.74 1010.00 1010.28 1010.53 1010.75 1010.90 1010.97 1010.93 1010.80 1010.58 1010.28 1009.93 1009.55 1009.18 1008.82 1008.51 1008.24 1008.01 1007.82 1007.66 1007.50 1007.34 1007.16 1006.95 1006.72 1006.47 1006.22 1005.98 1005.76 1005.59 1005.46
1008.25 1008.40 1008.57 1008.73 1008.89 1009.02 1009.13 1009.23 1009.32 1009.42 1009.52 1009.65 1009.81 1009.99 1010.19 1010.38 1010.56 1010.71 1010.79 1010.80 1010.74 1010.59 1010.37 1010.09 1009.77 1009.44 1009.10 1008.79 1008.50 1008.25 1008.03 1007.83 1007.64 1007.44 1007.23 1007.00 1006.74 1006.47 1006.18 1005.90 1005.63 1005.41 1005.23 1005.12
1008.43 1008.59 1008.76 1008.93 1009.10 1009.25 1009.38 1009.49 1009.59 1009.68 1009.78 1009.89 1010.01 1010.14 1010.28 1010.40 1010.51 1010.58 1010.60 1010.56 1010.47 1010.31 1010.10 1009.85 1009.57 1009.29 1009.01 1008.74 1008.50 1008.28 1008.08 1007.88 1007.68 1007.46 1007.22 1006.94 1006.65 1006.33 1006.01 1005.70 1005.42 1005.19 1005.02 1004.92
1008.53 1008.67 1008.83 1009.00 1009.16 1009.32 1009.47 1009.60 1009.72 1009.83 1009.94 1010.04 1010.14 1010.23 1010.31 1010.38 1010.42 1010.42 1010.39 1010.30 1010.17 1010.00 1009.80 1009.57 1009.33 1009.10 1008.87 1008.66 1008.47 1008.29 1008.11 1007.93 1007.72 1007.50 1007.24 1006.94 1006.62 1006.28 1005.94 1005.61 1005.33 1005.10 1004.94 1004.87
1008.55 1008.65 1008.79 1008.94 1009.11 1009.28 1009.45 1009.60 1009.75 1009.89 1010.01 1010.12 1010.21 1010.29 1010.34 1010.36 1010.34 1010.29 1010.19 1010.06 1009.90 1009.70 1009.49 1009.28 1009.06 1008.86 1008.68 1008.51 1008.36 1008.22 1008.07 1007.91 1007.72 1007.51 1007.25 1006.95 1006.63 1006.29 1005.95 1005.64 1005.36 1005.15 1005.01 1004.96
1008.51 1008.58 1008.68 1008.82 1008.99 1009.16 1009.35 1009.54 1009.72 1009.89 1010.04 1010.17 1010.27 1010.34 1010.36 1010.35 1010.29 1010.18 1010.04 1009.86 1009.65 1009.42 1009.19 1008.97 1008.76 1008.57 1008.41 1008.28 1008.16 1008.05 1007.94 1007.81 1007.65 1007.46 1007.23 1006.97 1006.67 1006.36 1006.06 1005.77 1005.53 1005.34 1005.23 1005.20
Thickness
5751 5758 5759 5758 5759 5758 5747 5737 5728 5733 5735 5743 5748 5749 5746 5743 5737 5733 5728 5725 5721 5716 5711 5708 5704 5700 5696 5691 5687 5683 5677 5671 5667 5663 5659 5655 5651 5647 5643 5639 5636 5632 5628 5624
5747 5757 5759 5756 5762 5762 5758 5754 5747 5743 5740 5754 5754 5751 5746 5741 5738 5733 5729 5727 5723 5719 5714 5709 5705 5700 5696 5691 5686 5682 5676 5671 5667 5663 5659 5654 5650 5646 5641 5637 5634 5629 5625 5621
5727 5743 5746 5737 5755 5760 5760 5762 5753 5740 5746 5753 5748 5748 5746 5743 5741 5737 5734 5730 5725 5721 5716 5711 5707 5702 5695 5691 5686 5681 5675 5671 5667 5662 5658 5653 5649 5644 5640 5635 5631 5627 5623 5619
5720 5726 5715 5739 5768 5770 5764 5764 5766 5761 5758 5759 5757 5755 5753 5750 5744 5740 5737 5732 5727 5722 5716 5711 5707 5702 5696 5691 5685 5680 5675 5671 5666 5662 5657 5652 5647 5642 5638 5634 5629 5625 5621 5617
5708 5708 5720 5746 5762 5763 5755 5750 5764 5760 5759 5758 5755 5748 5744 5749 5749 5745 5741 5735 5730 5724 5718 5711 5706 5701 5695 5689 5684 5679 5674 5670 5666 5661 5656 5651 5646 5641 5637 5632 5628 5624 5620 5615
5708 5704 5705 5733 5760 5770 5759 5738 5760 5760 5756 5751 5746 5727 5732 5747 5747 5743 5739 5734 5728 5722 5716 5709 5704 5699 5693 5687 5682 5677 5674 5670 5665 5660 5655 5650 5645 5641 5636 5631 5626 5622 5618 5614
5705 5703 5716 5743 5759 5763 5730 5732 5757 5759 5757 5752 5746 5744 5747 5746 5743 5740 5736 5731 5726 5719 5713 5707 5703 5697 5690 5685 5680 5678 5674 5669 5664 5659 5654 5649 5644 5639 5635 5630 5625 5620 5615 5612
5699 5697 5709 5745 5748 5741 5740 5753 5758 5758 5757 5753 5749 5748 5745 5742 5737 5734 5730 5726 5721 5714 5709 5705 5700 5694 5687 5682 5681 5677 5672 5666 5662 5657 5652 5649 5642 5637 5633 5627 5622 5617 5612 5608
5705 5710 5730 5741 5744 5751 5752 5752 5756 5755 5754 5752 5745 5741 5739 5735 5732 5729 5726 5722 5717 5711 5705 5700 5697 5692 5685 5682 5679 5674 5668 5663 5658 5654 5650 5645 5640 5635 5630 5625 5619 5614 5609 5604
5709 5720 5732 5740 5748 5753 5754 5754 5758 5756 5753 5751 5744 5739 5734 5730 5726 5724 5721 5717 5712 5706 5700 5696 5693 5690 5686 5682 5677 5671 5665 5659 5655 5650 5646 5642 5638 5633 5627 5622 5617 5612 5607 5602
5707 5720 5728 5738 5743 5749 5751 5753 5753 5751 5750 5748 5743 5736 5730 5726 5722 5719 5717 5713 5709 5703 5698 5694 5690 5687 5683 5678 5673 5666 5661 5656 5651 5647 5643 5639 5635 5631 5627 5624 5619 5613 5608 5602
5707 5720 5722 5730 5741 5746 5746 5746 5747 5745 5743 5743 5742 5735 5730 5724 5720 5716 5712 5708 5704 5699 5695 5691 5687 5683 5680 5676 5670 5663 5657 5652 5648 5644 5640 5635 5631 5628 5628 5624 5620 5615 5610 5604
5724 5729 5730 5736 5740 5743 5744 5745 5745 5742 5740 5737 5736 5734 5728 5721 5716 5713 5708 5704 5700 5696 5693 5688 5684 5680 5677 5672 5667 5661 5655 5650 5645 5641 5636 5632 5628 5624 5621 5621 5619 5614 5610 5604
5727 5727 5724 5729 5733 5739 5741 5741 5740 5738 5737 5734 5731 5727 5723 5717 5712 5707 5704 5701 5698 5693 5689 5684 5679 5676 5673 5669 5663 5658 5653 5649 5643 5638 5634 5630 5626 5622 5618 5614 5611 5609 5608 5604
5721 5723 5722 5727 5728 5730 5733 5732 5728 5726 5725 5725 5724 5720 5716 5710 5706 5703 5700 5697 5692 5687 5683 5679 5674 5671 5669 5665 5659 5654 5649 5645 5640 5636 5632 5628 5624 5620 5616 5612 5608 5606 5603 5601
5713 5715 5716 5715 5714 5717 5720 5720 5717 5715 5716 5715 5714 5712 5710 5706 5702 5697 5693 5690 5683 5679 5676 5673 5669 5668 5665 5660 5655 5650 5645 5642 5638 5632 5628 5624 5620 5616 5613 5609 5606 5602 5599 5597
5700 5698 5700 5701 5702 5705 5708 5709 5707 5706 5707 5706 5705 5703 5699 5695 5690 5686 5683 5681 5678 5675 5671 5668 5665 5663 5659 5654 5649 5645 5640 5637 5634 5629 5624 5620 5616 5613 5610 5606 5603 5600 5597 5595
5695 5694 5694 5694 5694 5695 5696 5698 5698 5698 5697 5697 5695 5692 5687 5682 5678 5676 5674 5672 5669 5665 5663 5661 5659 5656 5652 5648 5643 5639 5634 5630 5626 5623 5619 5616 5612 5610 5606 5603 5600 5597 5594 5592
5687 5687 5687 5687 5687 5687 5686 5686 5686 5687 5687 5686 5683 5679 5676 5673 5671 5668 5665 5661 5657 5654 5653 5653 5651 5647 5643 5640 5636 5631 5627 5623 5620 5617 5614 5611 5608 5605 5601 5598 5596 5593 5591 5587
5676 5677 5677 5677 5677 5677 5675 5675 5676 5676 5675 5674 5671 5667 5664 5662 5660 5657 5653 5649 5647 5646 5645 5643 5640 5637 5634 5631 5628 5623 5620 5616 5613 5609 5606 5604 5601 5598 5595 5593 5591 5588 5586 5583
5662 5663 5663 5663 5664 5664 5664 5664 5664 5663 5663 5662 5658 5655 5652 5650 5649 5645 5640 5636 5636 5636 5635 5633 5629 5626 5624 5621 5619 5614 5611 5608 5604 5601 5598 5596 5594 5591 5589 5586 5584 5582 5580 5578
5649 5649 5649 5649 5650 5649 5651 5652 5652 5651 5650 5648 5646 5644 5640 5637 5635 5632 5629 5626 5625 5625 5622 5619 5616 5615 5612 5610 5607 5604 5601 5598 5595 5592 5589 5587 5585 5583 5581 5579 5576 5575 5574 5572
5636 5636 5636 5637 5637 5637 5639 5640 5640 5639 5638 5636 5634 5631 5628 5625 5622 5618 5615 5615 5614 5613 5610 5607 5605 5603 5601 5598 5595 5592 5589 5587 5584 5582 5580 5578 5576 5574 5572 5570 5569 5567 5566 5565
5625 5625 5625 5626 5627 5626 5625 5626 5627 5627 5626 5625 5622 5621 5617 5613 5609 5608 5607 5606 5604 5601 5597 5595 5593 5591 5588 5585 5582 5580 5577 5575 5573 5571 5570 5568 5567 5565 5563 5562 5560 5560 5559 5559
5614 5615 5615 5614 5613 5613 5613 5614 5613 5613 5612 5610 5609 5608 5605 5602 5598 5596 5595 5593 5592 5589 5585 5583 5581 5579 5576 5572 5570 5567 5565 5563 5562 5560 5558 5556 5555 5554 5552 5551 5550 5550 5550 5550
5603 5602 5602 5603 5602 5602 5601 5600 5598 5597 5596 5594 5593 5592 5591 5589 5587 5584 5582 5580 5579 5576 5573 5570 5568 5566 5563 5560 5558 5556 5554 5552 5550 5548 5546 5544 5543 5542 5541 5540 5541 5540 5540 5540
5591 5591 5590 5590 5591 5591 5590 5588 5586 5584 5582 5580 5578 5578 5577 5576 5573 5571 5570 5567 5565 5562 5560 5558 5555 5553 5550 5547 5545 5543 5541 5539 5537 5535 5533 5532 5531 5530 5530 5530 5530 5529 5529 5529